When you browse on this site, cookies collect data to enhance your experience and personalize the content and advertising you see.
Visit our Privacy Policy to learn more. By continuing to use the site, you agree to this use of cookies and data.
  • In Czech Republic
  • List of Countries
  • For 7 days
  • Water Temperature
  • Satellite Maps
  • Weather Map
  • Weather Widgets
  • user-avatar
    Login

    Hourly Weather Naftalan

    Today, 24 January, Thursday

    Time Temperature Precipitation Wind Pressure Humidity
    00:00 +8°C° 0 mm 4 mps 770 mmHg 82%
    01:00 +9°C° 0 mm 3 mps 769 mmHg 84%
    02:00 +9°C° 0 mm 3 mps 769 mmHg 85%
    03:00 +9°C° 0 mm 2 mps 769 mmHg 86%
    04:00 +9°C° 0 mm 2 mps 769 mmHg 88%
    05:00 +9°C° 0 mm 2 mps 769 mmHg 89%
    06:00 +8°C° 0 mm 2 mps 769 mmHg 91%
    07:00 +8°C° 0 mm 2 mps 769 mmHg 91%
    08:00 +8°C° 0 mm 3 mps 769 mmHg 91%
    09:00 +8°C° 0 mm 3 mps 769 mmHg 91%
    10:00 +9°C° 0 mm 2 mps 768 mmHg 87%
    11:00 +9°C° 0 mm 2 mps 768 mmHg 83%
    12:00 +11°C° 0 mm 1 mps 768 mmHg 79%
    13:00 +11°C° 0 mm 1 mps 767 mmHg 78%
    14:00 +11°C° 0 mm 1 mps 767 mmHg 77%
    15:00 +12°C° 0 mm 2 mps 766 mmHg 77%
    16:00 +10°C° 0 mm 2 mps 766 mmHg 80%
    17:00 +10°C° 0 mm 2 mps 766 mmHg 84%
    18:00 +10°C° 0 mm 2 mps 766 mmHg 87%
    19:00 +10°C° 0 mm 2 mps 766 mmHg 89%
    20:00 +9°C° 0 mm 2 mps 766 mmHg 90%
    21:00 +9°C° 0 mm 2 mps 765 mmHg 91%
    22:00 +9°C° 0 mm 2 mps 765 mmHg 92%
    23:00 +9°C° 0 mm 2 mps 765 mmHg 93%

    Tomorrow, 25 January, Friday

    Time Temperature Precipitation Wind Pressure Humidity
    00:00 +9°C° 0 mm 1 mps 764 mmHg 94%
    01:00 +8°C° 0 mm 2 mps 764 mmHg 94%
    02:00 +8°C° 0 mm 3 mps 764 mmHg 95%
    03:00 +8°C° 0 mm 3 mps 763 mmHg 96%
    04:00 +7°C° 0 mm 3 mps 763 mmHg 91%
    05:00 +6°C° 0 mm 4 mps 763 mmHg 87%
    06:00 +5°C° 0 mm 4 mps 763 mmHg 83%
    07:00 +6°C° 0 mm 4 mps 763 mmHg 73%
    08:00 +7°C° 0 mm 4 mps 763 mmHg 63%
    09:00 +8°C° 0 mm 4 mps 763 mmHg 53%
    10:00 +11°C° 0 mm 4 mps 762 mmHg 48%
    11:00 +12°C° 0 mm 4 mps 762 mmHg 43%
    12:00 +13°C° 0 mm 4 mps 762 mmHg 38%
    13:00 +13°C° 0 mm 3 mps 762 mmHg 39%
    14:00 +13°C° 0 mm 3 mps 762 mmHg 39%
    15:00 +14°C° 0 mm 2 mps 762 mmHg 40%
    16:00 +14°C° 0 mm 2 mps 762 mmHg 42%
    17:00 +13°C° 0 mm 2 mps 763 mmHg 43%
    18:00 +12°C° 0 mm 2 mps 763 mmHg 45%
    19:00 +12°C° 0 mm 2 mps 763 mmHg 46%
    20:00 +10°C° 0 mm 2 mps 764 mmHg 46%
    21:00 +10°C° 0 mm 3 mps 764 mmHg 47%
    22:00 +10°C° 0 mm 2 mps 764 mmHg 48%
    23:00 +9°C° 0 mm 2 mps 765 mmHg 50%

    Day after tomorrow, 26 January, Saturday

    Time Temperature Precipitation Wind Pressure Humidity
    00:00 +9°C° 0 mm 2 mps 765 mmHg 52%
    01:00 +9°C° 0 mm 2 mps 765 mmHg 57%
    02:00 +8°C° 0 mm 2 mps 765 mmHg 63%
    03:00 +8°C° 0 mm 2 mps 765 mmHg 68%
    04:00 +8°C° 0 mm 3 mps 766 mmHg 73%
    05:00 +8°C° 0 mm 3 mps 766 mmHg 77%
    06:00 +8°C° 0 mm 3 mps 766 mmHg 82%
    07:00 +8°C° 0 mm 4 mps 766 mmHg 80%
    08:00 +10°C° 0 mm 4 mps 766 mmHg 79%
    09:00 +9°C° 0 mm 5 mps 767 mmHg 77%
    10:00 +10°C° 0 mm 5 mps 766 mmHg 75%
    11:00 +10°C° 0 mm 5 mps 766 mmHg 72%
    12:00 +12°C° 0 mm 5 mps 765 mmHg 70%
    13:00 +12°C° 0 mm 5 mps 765 mmHg 71%
    14:00 +12°C° 0 mm 4 mps 764 mmHg 72%
    15:00 +12°C° 0 mm 4 mps 764 mmHg 73%
    16:00 +11°C° 0 mm 3 mps 764 mmHg 78%
    17:00 +10°C° 0 mm 3 mps 764 mmHg 83%
    18:00 +10°C° 0 mm 2 mps 763 mmHg 88%
    19:00 +9°C° 0 mm 2 mps 763 mmHg 89%
    20:00 +10°C° 0 mm 1 mps 764 mmHg 91%
    21:00 +10°C° 0 mm 1 mps 764 mmHg 93%
    22:00 +9°C° 0 mm 2 mps 763 mmHg 94%
    23:00 +9°C° 0 mm 2 mps 763 mmHg 95%

    27 January, Sunday

    Time Temperature Precipitation Wind Pressure Humidity
    00:00 +9°C° 0 mm 3 mps 763 mmHg 96%
    01:00 +8°C° 0 mm 3 mps 763 mmHg 89%
    02:00 +8°C° 0 mm 3 mps 763 mmHg 82%
    03:00 +7°C° 0 mm 4 mps 763 mmHg 75%
    04:00 +7°C° 0 mm 4 mps 763 mmHg 68%
    05:00 +7°C° 0 mm 4 mps 763 mmHg 60%
    06:00 +7°C° 0 mm 4 mps 763 mmHg 53%
    07:00 +8°C° 0 mm 5 mps 763 mmHg 49%
    08:00 +8°C° 0 mm 5 mps 763 mmHg 46%
    09:00 +9°C° 0 mm 5 mps 763 mmHg 42%
    10:00 +12°C° 0 mm 5 mps 763 mmHg 40%
    11:00 +13°C° 0 mm 4 mps 762 mmHg 37%
    12:00 +15°C° 0 mm 4 mps 762 mmHg 35%
    13:00 +16°C° 0 mm 3 mps 761 mmHg 35%
    14:00 +16°C° 0 mm 3 mps 761 mmHg 35%
    15:00 +17°C° 0 mm 3 mps 760 mmHg 36%
    16:00 +14°C° 0 mm 3 mps 760 mmHg 39%
    17:00 +13°C° 0 mm 3 mps 760 mmHg 43%
    18:00 +12°C° 0 mm 3 mps 760 mmHg 46%
    19:00 +12°C° 0 mm 3 mps 760 mmHg 47%
    20:00 +11°C° 0 mm 3 mps 760 mmHg 48%
    21:00 +11°C° 0 mm 3 mps 760 mmHg 48%
    22:00 +10°C° 0 mm 3 mps 760 mmHg 48%
    23:00 +10°C° 0 mm 3 mps 760 mmHg 49%

    28 January, Monday

    Time Temperature Precipitation Wind Pressure Humidity
    00:00 +10°C° 0 mm 3 mps 759 mmHg 49%
    01:00 +10°C° 0 mm 3 mps 759 mmHg 49%
    02:00 +10°C° 0 mm 4 mps 759 mmHg 50%
    03:00 +8°C° 0 mm 5 mps 759 mmHg 51%
    04:00 +9°C° 0 mm 5 mps 759 mmHg 52%
    05:00 +9°C° 0 mm 6 mps 759 mmHg 53%
    06:00 +9°C° 0 mm 6 mps 759 mmHg 54%
    07:00 +9°C° 0 mm 6 mps 759 mmHg 53%
    08:00 +10°C° 0 mm 6 mps 760 mmHg 53%
    09:00 +10°C° 0 mm 6 mps 760 mmHg 53%
    10:00 +12°C° 0 mm 5 mps 760 mmHg 51%
    11:00 +13°C° 0 mm 5 mps 759 mmHg 50%
    12:00 +14°C° 0 mm 4 mps 759 mmHg 48%
    13:00 +14°C° 0 mm 4 mps 759 mmHg 50%
    14:00 +14°C° 0 mm 3 mps 759 mmHg 52%
    15:00 +14°C° 0 mm 3 mps 758 mmHg 54%
    16:00 +12°C° 0.1 mm 4 mps 759 mmHg 62%
    17:00 +11°C° 0.1 mm 4 mps 759 mmHg 70%
    18:00 +9°C° 0.1 mm 5 mps 759 mmHg 78%
    19:00 +9°C° 0.1 mm 5 mps 759 mmHg 79%
    20:00 +8°C° 0.1 mm 5 mps 760 mmHg 80%
    21:00 +8°C° 0.1 mm 5 mps 760 mmHg 82%
    22:00 +8°C° 0.1 mm 6 mps 760 mmHg 80%
    23:00 +8°C° 0.1 mm 6 mps 759 mmHg 78%

    29 January, Tuesday

    Time Temperature Precipitation Wind Pressure Humidity
    00:00 +8°C° 0.1 mm 7 mps 759 mmHg 76%
    01:00 +7°C° 0 mm 8 mps 759 mmHg 74%
    02:00 +7°C° 0 mm 8 mps 758 mmHg 72%
    03:00 +7°C° 0 mm 9 mps 758 mmHg 71%
    04:00 +7°C° 0.3 mm 9 mps 758 mmHg 72%
    05:00 +7°C° 0.3 mm 9 mps 758 mmHg 73%
    06:00 +7°C° 0.3 mm 9 mps 758 mmHg 73%
    07:00 +7°C° 0.2 mm 9 mps 758 mmHg 73%
    08:00 +7°C° 0.2 mm 9 mps 759 mmHg 73%
    09:00 +7°C° 0.2 mm 9 mps 759 mmHg 72%
    10:00 +7°C° 0.5 mm 9 mps 759 mmHg 74%
    11:00 +7°C° 0.5 mm 8 mps 760 mmHg 75%
    12:00 +6°C° 0.5 mm 8 mps 760 mmHg 76%
    13:00 +6°C° 0.9 mm 7 mps 761 mmHg 80%
    14:00 +7°C° 0.9 mm 5 mps 761 mmHg 83%
    15:00 +8°C° 0.9 mm 3 mps 762 mmHg 86%
    16:00 +7°C° 0.8 mm 3 mps 762 mmHg 87%
    17:00 +7°C° 0.8 mm 2 mps 763 mmHg 89%
    18:00 +8°C° 0.8 mm 1 mps 764 mmHg 90%
    19:00 +8°C° 1.1 mm 1 mps 764 mmHg 92%
    20:00 +8°C° 1.1 mm 1 mps 765 mmHg 93%
    21:00 +8°C° 1.1 mm 1 mps 765 mmHg 94%
    22:00 +8°C° 1 mm 1 mps 766 mmHg 94%
    23:00 +8°C° 1 mm 1 mps 766 mmHg 94%
    Show more